Other Public Products
Issued by NWS Grand Forks, ND

Home | Current Version | Previous Version | Graphics & Text | Print | Product List | Glossary On
Versions: 1 2 3 4 5 6 7 8 9 10 11 12 13 14 15 16 17 18 19 20 21 22 23 24 25 26 27 28 29 30 31 32 33 34 35 36 37 38 39 40 41 42 43 44 45 46 47 48 49 50
000
FPUS83 KFGF 180431
OPUFGF
PRAIRIE TO PINES WEATHER ROUNDUP
NATIONAL WEATHER SERVICE EASTERN NORTH DAKOTA/GRAND FORKS ND
1100 PM CDT FRI APR 17 2015

 **SATELLITE DATA USED TO AUGMENT SKY COVER AT AUTOMATED STATIONS**
 *****  WEATHER ACROSS EASTERN NORTH DAKOTA  *****

CITY           SKY/WX    TMP DP  RH WIND       PRES   REMARKS
GRAND FORKS    CLEAR     43  31  62 NE6       30.14R
GRAND FORKS AF CLEAR     39  26  59 NE8       30.14R
GRAND CITY NWS   N/A     48 N/A N/A N5          N/A
BUXTON           N/A     50  26  38 CALM        N/A
DEVILS LAKE    CLEAR     43  23  45 E9        30.15R
FARGO          PTCLDY    55  16  21 N9        30.09R
WAHPETON ARPT  FAIR      55  23  28 N13       30.06R
$$

 *****  WEATHER ACROSS CENTRAL AND WESTERN NORTH DAKOTA  *****

CITY           SKY/WX    TMP DP  RH WIND       PRES   REMARKS
JAMESTOWN      CLEAR     46  25  43 NE7       30.11R
BISMARCK       PTCLDY    50  31  48 NE9       30.10R
MINOT          CLEAR     42  24  49 N5        30.11S
MINOT AFB      CLEAR     50  26  40 NE6       30.10F
GARRISON         N/A     49  28  44 NE6       30.10R
WILLISTON      CLEAR     54  27  35 E10       30.06F
DICKINSON      PTCLDY    47  20  34 S7        30.07S
HETTINGER      MOCLDY    46  24  42 CALM      30.10S
$$

 *****  OTHER OBSERVATIONS NORTHEAST NORTH DAKOTA  *****

CITY           SKY/WX    TMP DP  RH WIND       PRES   REMARKS
WALHALLA       FAIR      45  32  61 S5        30.19S
LANGDON        FAIR      43  27  52 E13G18    30.16S
CAVALIER       FAIR      46  32  57 NE9       30.17S
GRAFTON        FAIR      43  30  61 NE9       30.16S
CANDO          FAIR      41  27  56 NE6       30.16S
FORT TOTTEN      N/A     48  24  39 NE6       29.95
ROLLA          FAIR      41  28  60 CALM      30.17S
RUGBY          FAIR      41  30  65 E14       30.14S
 ***** THE ABOVE OBSERVATIONS ARE NON NWS ARE NOT QUALITY
        CONTROLLED AND MAY MIS-REPORT RAIN FOR SNOW...
$$

 *****  OTHER OBSERVATIONS SOUTHEAST NORTH DAKOTA *****

CITY           SKY/WX    TMP DP  RH WIND       PRES   REMARKS
COOPERSTOWN    NOT AVBL
VALLEY CITY    MOCLDY    48  23  37 NE7       30.12S
OAKES            N/A     54  28  37 NE13      30.09R
GWINNER        CLEAR     54  27  35 N12       30.09S
SHEYENNE NWR     N/A     57  20  23 NE10      29.95S
BUFFALO        NOT AVBL
WYNDMERE         N/A     55  25  30 N8          N/A
 ***** THE ABOVE OBSERVATIONS ARE NON NWS ARE NOT QUALITY
       CONTROLLED AND MAY MIS-REPORT RAIN FOR SNOW...
$$

  *****  WEATHER ACROSS NORTHERN MINNESOTA  *****

CITY           SKY/WX    TMP DP  RH WIND       PRES   REMARKS
FLAG ISLAND    CLEAR     43  30  61 NE14      30.16R
WARROAD        CLEAR     41  34  75 NE6       30.18R
ROSEAU         CLEAR     39  30  70 CALM      30.17R
HALLOCK        CLEAR     39  27  60 N6        30.17R
THF RVR FALLS  CLEAR     46  28  49 NE9       30.15R
HALSTAD          N/A     46  14  27 NE10        N/A
FOSSTON        CLEAR     46  19  34 NE10      30.13R
BAUDETTE       CLEAR     46  30  53 NE12      30.14R
WASKISH        CLEAR     45  30  57 CALM      30.14R
CROOKSTON      CLEAR     48  30  49 NE8       30.14R
$$
  *****  WEATHER ACROSS CENTRAL AND WEST MINNESOTA  *****

CITY           SKY/WX    TMP DP  RH WIND       PRES   REMARKS
BEMIDJI        CLEAR     49  26  40 N7        30.12R
PARK RAPIDS    CLEAR     58  22  24 NE7       30.08R
WADENA         PTCLDY    54  28  37 NE7       30.07R
DETROIT LAKES  CLEAR     54  28  37 CALM      30.10R
MOORHEAD       CLEAR     46  19  34 N5        30.10R
FERGUS FALLS   PTCLDY    55  25  30 NE7       30.07R
ELBOW LAKE     FAIR      52  30  42 CALM      30.06R
MORRIS MN      CLEAR     54  21  28 W5        30.05R
STAPLES        PTCLDY    54  23  30 N3        30.07R
WHEATON        PTCLDY    54  19  26 SW3       30.07R
$$
  *****  WEATHER ELSEWHERE ACROSS MINNESOTA  *****

CITY           SKY/WX    TMP DP  RH WIND       PRES   REMARKS
DULUTH         CLEAR     58  28  32 N9        30.05R
INTRNTL FALLS  CLEAR     45  30  55 NE8       30.13R
ELY            CLEAR     48  28  46 N7        30.10R
CLOQUET        CLEAR     55  21  26 N6        30.06R
BRAINERD       PTCLDY    54  27  35 N7        30.06R
HIBBING        CLEAR     53  21  28 N14       30.07R
ALEXANDRIA     PTCLDY    52  31  44 SW3       30.06S
SAINT CLOUD    CLEAR     50  29  44 SW3       30.04R
MINNEAPOLIS    PTCLDY    59  34  39 NW6       30.04R
$$

  *****  WEATHER ACROSS SOUTH DAKOTA  *****

CITY           SKY/WX    TMP DP  RH WIND       PRES   REMARKS
SIOUX FALLS    MOCLDY    59  35  40 NE6       30.05R
BROOKINGS      PTCLDY    54  25  32 CALM      30.07F
WATERTOWN      PTCLDY    47  25  42 CALM      30.07F
HURON          PTCLDY    50  27  40 E3        30.05F
SISSETON         N/A     46  27  47 W3        30.04F
ABERDEEN       PTCLDY    47  19  33 SE3       30.06S
MITCHELL       CLOUDY    61  34  36 CALM      30.05S
PIERRE         MOCLDY    58  46  64 W9        30.06F
MOBRIDGE       MOCLDY    50  24  36 CALM      30.05F
RAPID CITY     LGT RAIN  47  45  93 S6        30.13R
$$

  *****  SOME WEATHER IN NEARBY STATES *****

CITY           SKY/WX    TMP DP  RH WIND       PRES   REMARKS
GLASGOW MT     CLEAR     48  27  44 E13       29.99S
GREAT FALLS MT CLEAR     50  30  46 S10       29.96S
CHEYENNE WY    LGT SNOW  33  32  96 NE6       30.08R FOG
SCOTTSBLUFF NE RAIN      43  43 100 W8        30.06R FOG
OMAHA NE       CLOUDY    69  54  58 CALM      29.99S
DES MOINES IA  MOCLDY    69  52  54 CALM      30.00F
DAVENPORT IA   CLEAR     60  46  59 CALM      30.01F
CHICAGO IL     MOCLDY    63  46  54 CALM      30.00F
EAU CLAIRE WI  PTCLDY    52  31  44 CALM      30.02S
LA CROSSE WI   MOCLDY    59  51  75 CALM      30.01R
$$

  *****  SOME NATIONAL WEATHER *****

CITY           SKY/WX    TMP DP  RH WIND       PRES   REMARKS
LA GUARDIA NY  PTCLDY    63  49  60 N5        29.97R
RALEIGH NC     CLOUDY    65  62  90 CALM      30.01F
ATLANTA GA     LGT RAIN  62  60  93 E7        30.02F FOG
NEW ORLEANS LA CLOUDY    75  69  81 S3        29.95R
OKLAHOMA CITY  CLOUDY    64  58  80 W5        29.95S
ALBUQUERQUE NM CLOUDY    48  22  35 N13       30.06R
SALT LAKE CITY PTCLDY    53  37  54 SE9       30.03R
LOS ANGELES CA CLEAR     65  41  41 W10       30.00R
BOISE ID       CLEAR     61  31  32 N5        30.02R
SEATTLE WA     MOCLDY    57  44  62 N7        30.27R
$$

*** WEATHER ACROSS MANITOBA...SASKATCHEWAN AND ONTARIO ***
                ***ONTARIO***

CITY           SKY/WX    TMP DP  RH WIND       PRES   REMARKS
GERALDTON      CLOUDY    37  36  93 NW7       30.03R
THUNDER BAY    CLEAR     48  34  57 N13G26    30.06R
SIOUX LOOKOUT  CLEAR     30  28  93 N2        30.15S
TORONTO        CLEAR     54  39  58 NW5       29.99S
BIG TROUT LK   CLOUDY    30  30 100 N2        30.11R
PICKLE LAKE    NOT AVBL
DRYDEN         CLEAR     37  30  75 NW3       30.16R
KENORA         CLEAR     39  28  65 NE7       30.17S
$$
                *** MANITOBA***

CITY           SKY/WX    TMP DP  RH WIND       PRES   REMARKS
BRANDON        CLEAR     41  34  75 SE5       30.17R
DAUPHIN        CLEAR     39  32  75 SE8       30.16S
ISLAND LAKE    PTCLDY    36  32  87 SW3       30.16R
PILOT MOUND      N/A     39  28  65 E5          N/A
THE PAS        PTCLDY    43  32  65 SE9       30.10F
THOMPSON       PTCLDY    37  23  56 VRB2      30.13S
WINNIPEG       CLEAR     37  28  70 NE7       30.20R
LYNN LAKE      CLOUDY    39  23  52 SE6       30.06S
CHURCHILL      CLEAR     19  14  79 NW10      30.20S WCI   8
GILLAM         CLEAR     30  28  93 SW5       30.17R
$$
                ***SASKATCHEWAN***

CITY           SKY/WX    TMP DP  RH WIND       PRES   REMARKS
ESTEVAN        CLEAR     43  30  61 E10       30.10F
KINDERSLEY     MOCLDY    55  30  38 SE14      29.80F
LLOYDMINSTER   HVY RAIN  45  43  93 NW22G36   29.92R FOG
PRINCE ALBERT  CLOUDY    50  27  40 SE14      29.97F
REGINA         CLEAR     48  27  43 SE15      30.05F



USA.gov is the U.S. government's official web portal to all federal, state and local government web resources and services.